DateTimeUTC,F1_A11,F1_S11,BsB_S11,BsG_S11,BsR_S11,BbsB_S11,BbsG_S11,BbsR_S11,BaB_A11,BaG_A11,BaR_A11,Tu_S11,T_S11,Uu_S11,U_S11,P_S11,T1_A11
2021-02-09T14:00:00Z,00000200,21000000,,,,,,,-000.34,-000.44,-000.50,16.0,23.4,,00.0,0652.8,30.9
2021-02-09T14:01:00Z,00000200,21000000,,,,,,,-000.69,-000.92,-000.48,16.0,23.4,,00.0,0653.0,30.9
2021-02-09T14:02:00Z,00000200,21000000,,,,,,,-000.68,-000.75,-000.69,15.9,23.4,,00.0,0653.0,30.9
2021-02-09T14:03:00Z,00000200,61000000,,,,,,,0000.16,-000.09,-000.20,15.9,23.4,,00.0,0653.1,30.9
2021-02-09T14:04:00Z,00000200,41000000,0002.74,0000.85,0000.23,0001.04,0000.11,0000.05,0001.49,0001.19,0001.27,15.9,23.1,,00.0,0653.9,30.9
2021-02-09T14:05:00Z,00000200,01000000,0001.30,0000.92,0000.51,0000.52,0000.17,0000.12,0001.08,0001.14,0000.68,16.0,23.1,,00.0,0653.9,30.9
2021-02-09T14:06:00Z,00000200,01000000,0001.26,0000.94,0000.44,0000.34,0000.58,0000.07,0000.74,0000.60,0000.70,16.0,23.0,,00.0,0653.8,30.9
2021-02-09T14:07:00Z,00000200,01000000,0001.17,0000.95,0000.19,0000.06,0000.10,-000.13,0000.07,0000.61,0000.19,16.0,23.0,,00.0,0653.7,30.9
2021-02-09T14:08:00Z,00000200,01000000,0001.03,0001.05,0000.25,0000.13,-000.03,0000.20,0000.81,0000.44,0000.86,16.1,23.1,,00.0,0653.7,30.9
2021-02-09T14:09:00Z,00000200,01000000,0001.16,0000.67,0000.49,0000.22,0000.42,0000.19,0000.60,0000.89,0000.10,16.2,23.1,,00.0,0653.7,30.9
2021-02-09T14:10:00Z,00000200,01000000,0001.67,0000.84,0000.29,0000.19,0000.26,-000.14,0000.42,0000.05,0000.27,16.2,23.1,,00.0,0653.7,31.0
2021-02-09T14:11:00Z,00000200,01000000,0001.34,0000.86,0000.27,0000.35,0000.39,0000.07,0000.10,0000.26,0000.16,16.3,23.2,,00.0,0653.9,31.0
2021-02-09T14:12:00Z,00000200,01000000,0001.32,0000.75,0000.21,0000.25,0000.27,0000.10,-000.03,-000.03,-000.04,16.4,23.2,,00.0,0654.1,31.0
2021-02-09T14:13:00Z,00000200,01000000,0001.95,0000.79,0000.25,-000.01,0000.19,0000.07,0000.09,0000.14,-000.03,16.4,23.2,,00.0,0654.0,31.0
2021-02-09T14:14:00Z,00000200,01000000,0000.96,0000.67,0000.09,0000.69,0000.19,0000.03,0000.39,0000.59,0000.29,16.5,23.2,,00.0,0653.9,31.0
2021-02-09T14:15:00Z,00000200,01000000,0001.56,0000.95,0000.45,0000.15,0000.10,-000.01,0000.71,0000.24,0000.31,16.4,23.2,,00.0,0653.8,31.0
2021-02-09T14:16:00Z,00000200,01000000,0001.24,0001.11,0000.53,0000.60,0000.17,0000.25,0000.92,0001.19,0000.66,16.4,23.2,,00.0,0653.8,31.0
2021-02-09T14:17:00Z,00000200,01000000,0002.24,0001.36,0000.66,0000.08,0000.34,0000.22,0000.87,0000.38,0000.42,16.3,23.2,,00.0,0653.7,30.9
2021-02-09T14:18:00Z,00000200,01000000,0001.54,0001.42,0000.19,0000.56,0000.36,0000.11,0000.78,0000.70,0000.56,16.2,23.1,,00.0,0653.6,30.9
2021-02-09T14:19:00Z,00000200,01000000,0000.91,0000.70,0000.45,0000.02,0000.47,0000.29,0000.70,0000.64,0000.41,16.2,23.1,,00.0,0653.6,30.9
2021-02-09T14:20:00Z,00000200,01000000,0001.26,0000.79,0000.50,0000.31,0000.15,0000.12,0001.22,0001.02,0000.81,16.1,23.1,,00.0,0653.7,30.9
2021-02-09T14:21:00Z,00000200,01000000,0001.54,0000.92,0000.65,-000.08,0000.45,0000.31,0000.83,0000.67,0000.92,16.1,23.1,,00.0,0653.9,30.9
2021-02-09T14:22:00Z,00000200,01000000,0001.54,0000.90,0000.44,0000.18,0000.40,0000.16,0000.14,0000.26,-000.20,16.2,23.1,,00.0,0654.2,30.9
2021-02-09T14:23:00Z,00000200,01000000,0000.72,0001.04,0000.42,0001.00,0000.45,0000.19,0000.35,0000.45,0000.55,16.3,23.1,,00.0,0654.0,31.0
2021-02-09T14:24:00Z,00000200,01000000,0002.30,0000.80,0000.62,0000.17,0000.23,0000.19,0000.81,0000.40,0000.54,16.3,23.1,,00.0,0653.8,31.0
2021-02-09T14:25:00Z,00000200,01000000,0001.46,0001.41,0000.45,0000.47,0000.28,0000.36,0001.17,0000.96,0000.47,16.4,23.2,,00.0,0653.7,31.0
2021-02-09T14:26:00Z,00000200,01000000,0001.60,0001.04,0000.38,0001.01,0000.31,-000.12,0000.94,0001.48,0001.01,16.5,23.2,,00.0,0653.6,31.0
2021-02-09T14:27:00Z,00000200,01000000,0001.74,0000.92,0000.09,0000.55,0000.10,0000.09,0001.28,0000.67,0001.01,16.5,23.2,,00.0,0653.5,31.0
2021-02-09T14:28:00Z,00000200,01000000,0001.64,0001.06,0000.44,0000.40,0000.41,0000.22,0000.77,0000.79,0000.23,16.5,23.3,,00.0,0653.5,30.9
2021-02-09T14:29:00Z,00000200,01000000,0001.31,0000.95,0000.41,0000.13,0000.36,0000.38,0000.61,0000.81,0000.60,16.5,23.3,,00.0,0653.6,30.9
2021-02-09T14:30:00Z,00000200,01000000,0001.64,0000.93,0000.38,-000.11,0000.55,0000.04,0000.68,0000.55,0000.12,16.5,23.2,,00.0,0653.6,30.9
2021-02-09T14:31:00Z,00000200,01000000,0001.68,0000.72,0000.38,0000.69,0000.33,0000.03,0000.33,0000.12,0000.43,16.4,23.2,,00.0,0653.6,30.9
2021-02-09T14:32:00Z,00000200,01000000,0001.08,0000.74,0000.36,0000.38,0000.20,0000.12,-000.09,-000.24,-000.36,16.4,23.2,,00.0,0653.6,30.9
2021-02-09T14:33:00Z,00000200,01000000,0001.13,0000.59,0000.30,0000.16,0000.20,0000.18,-000.40,-000.03,-000.50,16.3,23.2,,00.0,0653.7,30.9
2021-02-09T14:34:00Z,00000200,01000000,0000.49,0000.61,0000.25,0000.49,0000.30,0000.26,-000.33,-000.65,-000.28,16.3,23.1,,00.0,0653.7,30.9
2021-02-09T14:35:00Z,00000200,01000000,0001.51,0000.94,0000.21,0000.21,0000.15,-000.02,-000.14,-000.39,-000.29,16.2,23.1,,00.0,0653.6,30.9
2021-02-09T14:36:00Z,00000200,01000000,0002.08,0000.68,0000.26,0000.24,0000.23,-000.09,-000.04,-000.01,0000.25,16.2,23.1,,00.0,0653.7,30.9
2021-02-09T14:37:00Z,00000200,01000000,0001.06,0000.70,0000.57,0000.14,0000.39,0000.12,0000.13,0000.33,0000.18,16.3,23.1,,00.0,0654.0,30.9
2021-02-09T14:38:00Z,00000200,01000000,0001.53,0000.84,0000.44,0000.33,0000.24,-000.03,0000.21,0000.67,0000.43,16.4,23.1,,00.0,0654.0,30.9
2021-02-09T14:39:00Z,00000200,01000000,0001.64,0000.67,0000.29,0000.07,0000.30,0000.08,0000.38,0000.22,-000.07,16.4,23.2,,00.0,0653.9,31.0
2021-02-09T14:40:00Z,00000200,01000000,0000.70,0000.47,0000.32,0000.45,0000.12,0000.07,0000.80,0000.60,0000.65,16.5,23.2,,00.0,0653.8,31.0
2021-02-09T14:41:00Z,00000200,01000000,0001.59,0000.35,0000.49,0000.47,0000.18,0000.07,0000.35,0000.37,0000.40,16.5,23.2,,00.0,0653.8,30.9
2021-02-09T14:42:00Z,00000200,01000000,0001.64,0000.84,0000.63,0000.33,0000.14,0000.42,0000.32,0000.27,0000.21,16.5,23.2,,00.0,0653.7,30.9
2021-02-09T14:43:00Z,00000200,01000000,0001.47,0000.73,0000.38,0000.42,0000.44,-000.06,0000.28,0000.01,0000.17,16.4,23.2,,00.0,0653.7,30.9
2021-02-09T14:44:00Z,00000200,01000000,0001.28,0000.88,0000.12,0000.64,0000.42,-000.08,0000.36,0000.65,0000.24,16.4,23.2,,00.0,0653.6,30.9
2021-02-09T14:45:00Z,00000200,01000000,0000.72,0000.63,0000.29,0000.07,0000.23,0000.25,0001.41,0001.15,0000.63,16.3,23.2,,00.0,0653.5,30.9
2021-02-09T14:46:00Z,00000200,01000000,0001.82,0000.55,0000.38,0000.35,0000.31,0000.05,0000.55,0000.39,0000.60,16.3,23.1,,00.0,0653.5,30.9
2021-02-09T14:47:00Z,00000200,01000000,0001.55,0000.96,0000.26,0000.10,0000.48,0000.16,0000.91,0000.50,0000.57,16.2,23.1,,00.0,0653.6,30.9
2021-02-09T14:48:00Z,00000200,01000000,0001.24,0000.79,0000.27,0000.12,0000.58,-000.09,0000.37,0000.66,0000.26,16.2,23.1,,00.0,0653.6,30.9
2021-02-09T14:49:00Z,00000200,01000000,0001.60,0000.71,0000.44,0000.29,0000.17,-000.03,0000.84,0000.26,0000.49,16.1,23.0,,00.0,0653.4,30.9
2021-02-09T14:50:00Z,00000200,01000000,0001.28,0000.56,0000.16,0000.27,0000.17,0000.27,0000.46,0000.92,0000.27,16.1,23.0,,00.0,0653.3,30.9
2021-02-09T14:51:00Z,00000200,01000000,0000.40,0000.53,0000.36,0000.20,0000.45,0000.15,0001.31,0000.58,0001.26,16.1,23.0,,00.0,0653.3,30.9
2021-02-09T14:52:00Z,00000200,01000000,0001.52,0000.53,0000.29,0000.55,0000.67,0000.17,0000.63,0000.70,0000.24,16.2,23.0,,00.0,0653.3,30.9
2021-02-09T14:53:00Z,00000200,01000000,0001.52,0000.64,0000.37,0000.23,0000.48,0000.09,0000.47,0000.64,0000.20,16.2,23.0,,00.0,0653.3,30.9
2021-02-09T14:54:00Z,00000200,01000000,0001.80,0000.62,0000.51,0000.33,0000.44,0000.10,0000.16,0000.20,0000.21,16.3,23.0,,00.0,0653.3,30.9
2021-02-09T14:55:00Z,00000200,01000000,0001.24,0000.78,0000.56,0000.74,0000.33,0000.21,-000.21,-000.06,-000.44,16.3,23.0,,00.0,0653.3,30.9
2021-02-09T14:56:00Z,00000200,01000000,0001.51,0000.98,0000.55,0000.90,0000.33,0000.30,0000.63,0000.47,0000.52,16.3,23.1,,00.0,0653.3,30.9
2021-02-09T14:57:00Z,00000200,41000000,,,,,,,-001.69,-001.75,-001.30,16.3,23.1,,00.0,0653.4,30.9
2021-02-09T14:58:00Z,00000200,61000000,,,,,,,-000.21,0000.28,-000.10,15.9,23.2,,00.0,0652.9,30.9
2021-02-09T14:59:00Z,00000200,21000000,,,,,,,-000.27,-000.22,-000.36,15.8,23.3,,00.0,0652.8,30.9
